SCP
0 0 -0 -0 -0 -0 -0 -0 0 0 0 0 0 0 0 0 0 0 0 0 0 0 0 0 0 0 0 0 0 0 0 0 0 0 0 0 0 0 0 0 0 0 0
0 0 -0 -0 -0 -0 -0 -0 0 0 0 0 0 0 0 0 0 0 0 0 0 0 0 0 0 0 0 0 0 0 0 0 0 0 0 0 0 0 0 0 0 0 0
0 0 0 -0 -0 -0 -0 -0 0 0 0 0 0 0 0 0 0 0 0 0 0 0 0 0 0 0 0 0 0 0 0 0 0 0 0 0 0 0 0 0 0 0 0
0 0 0 0 0 -0 -0 0 0 0 0 0 0 0 0 0 0 0 0 0 0 0 0 0 0 0 0 0 0 0 0 0 0 0 0 0 0 0 0 0 0 0 0
0 0 0 0 0 0 0 0 0 0 0 0 0 0 0 0 0 0 0 0 0 0 0 0 0 0 0 0 0 0 0 0 0 0 0 0 0 0 0 0 0 0 0
0 0 0 0 0 0 0 0 0 0 0 0 0 0 0 0 0 0 0 0 0 0 0 0 0 0 0 0 0 0 0 0 0 0 0 0 0 0 0 0 0 0 0
0 0 0 0 0 0 0 0 0 0 0 0 0 0 0 0 0 0 0 0 0 0 0 0 0 0 0 0 0 0 0 0 0 0 0 0 0 0 0 0 0 0 0
0 0 0 0 0 0 0 0 0 0 0 0 0 0 0 0 0 0 0 0 0 0 0 0 0 0 0 0 0 0 0 0 0 0 0 0 0 0 0 0 0 0 0
0 0 0 0 0 0 0 0 0 0 0 0 0 0 0 0 0 0 0 0 0 0 0 0 0 0 0 0 0 0 0 0 0 0 0 0 0 0 0 0 0 0 0
0 0 0 0 0 0 0 0 0 0 0 0 0 0 0 0 0 0 0 0 0 0 0 0 0 0 0 0 0 0 0 0 0 0 0 0 0 0 0 0 0 0 0
0 0 0 0 0 0 0 0 0 0 0 0 0 0 0 0 0 0 0 0 0 0 0 0 0 0 0 0 0 0 0 0 0 0 0 0 0 0 0 0 0 0 0
0 0 0 0 0 0 0 0 0 0 0 0 0 0 0 0 0 0 0 0 0 0 0 0 0 0 0 0 0 0 0 0 0 0 0 0 0 0 0 0 0 0 0
0 0 0 0 0 0 0 0 0 0 0 0 0 0 0 0 0 0 0 0 0 0 0 0 0 0 0 0 0 0 0 0 0 0 0 0 0 0 0 0 0 0 0
0 0 0 0 0 0 0 0 0 0 0 0 0 0 0 0 0 0 0 0 0 0 0 0 0 0 0 0 0 0 0 0 0 0 0 0 0 0 0 0 0 0 0
0 0 0 0 0 0 0 0 0 0 0 0 0 0 0 0 0 0 0 0 0 0 0 0 0 0 0 0 0 0 0 0 0 0 0 0 0 0 0 0 0 0 0
0 0 0 0 0 0 0 0 0 0 0 0 0 0 0 0 0 0 0 0 0 0 0 0 0 0 0 0 0 0 0 0 0 0 0 0 0 0 0 0 0 0 0
0 0 0 0 0 0 0 0 0 0 0 0 0 0 0 0 0 0 0 0 0 0 0 0 0 0 0 0 0 0 0 0 0 0 0 0 0 0 0 0 0 0 0
0 0 0 0 0 0 0 0 0 0 0 0 0 0 0 0 0 0 0 0 0 0 0 0 0 0 0 0 0 0 0 0 0 0 0 0 0 0 0 0 0 0 0
1 0 0 0 0 0 0 0 0 0 0 0 0 0 0 0 0 0 0 0 0 0 0 0 0 0 0 0 0 0 0 0 0 0 0 0 0 0 0 0 0 0 0
1 1 1 0 0 0 0 0 0 0 0 0 0 0 0 0 0 0 0 0 0 0 0 0 0 0 0 0 0 0 0 0 0 0 0 0 0 0 0 0 0 0 0
1 1 1 1 1 0 0 0 0 0 0 0 0 0 0 0 0 0 0 0 0 0 0 0 0 0 0 0 0 0 0 0 0 0 0 0 0 0 0 0 0 0 0
1 1 1 1 1 1 0 0 0 0 0 0 0 0 0 0 0 0 0 0 0 0 0 0 0 0 0 0 0 0 0 0 0 0 0 0 0 0 0 0 0 0 0
1 1 1 1 1 1 1 0 0 0 0 0 0 0 0 0 0 0 0 0 0 0 0 1 1 1 0 0 0 0 0 0 0 0 0 0 0 0 0 0 0 0 0
1 1 1 1 1 1 1 1 0 0 0 0 0 0 0 0 0 0 0 0 0 0 0 1 1 1 1 0 0 0 0 0 0 0 0 0 0 0 0 0 0 0 0
1 1 1 1 1 1 1 1 1 0 0 0 0 0 0 0 0 0 1 1 1 0 0 1 1 1 1 0 0 0 0 0 0 0 0 0 0 0 0 0 0 0 0
1 1 1 1 1 1 1 1 1 0 0 0 0 0 0 0 1 1 1 1 1 1 1 1 1 1 1 1 0 0 0 0 0 0 0 0 0 0 0 0 0 0 0
Wind_Speed
8 9 10 10 11 11 12 12 12 12 12 12 12 13 14 15 15 15 16 16 16 16 16 16 15 15 15 16 16 15 15 14 13 14 14 13 12 11 11 11 11 10 13
10 10 11 11 11 11 11 11 11 11 12 12 12 12 14 14 14 15 15 16 15 16 16 16 15 15 15 15 15 14 13 13 13 13 13 12 11 10 9 9 10 9 13
10 11 11 11 11 11 11 11 12 12 12 11 11 12 13 14 14 14 15 15 15 15 15 15 15 14 14 14 13 12 12 11 11 12 11 8 8 10 10 11 13 13 12
10 10 10 11 11 11 11 11 11 12 12 11 11 12 13 13 13 14 14 14 15 15 15 15 14 14 13 12 12 10 10 9 8 8 5 6 7 10 10 11 12 12 11
11 11 10 12 11 11 11 11 11 11 11 11 11 11 11 12 12 12 13 13 14 14 14 14 14 13 12 11 10 9 7 6 5 3 4 6 6 10 11 11 11 11 10
12 12 11 11 11 11 11 11 11 10 10 11 10 10 10 10 11 12 12 13 13 13 13 13 13 12 12 11 9 7 6 4 3 2 4 7 6 9 11 11 10 9 9
11 11 11 12 11 11 11 11 10 10 9 9 10 9 9 9 10 11 12 12 12 12 12 12 12 12 11 10 8 6 4 3 2 3 5 7 7 10 10 10 9 9 8
11 11 11 12 11 11 11 10 9 9 9 9 8 8 9 9 10 10 10 11 11 11 11 11 11 10 10 9 7 5 3 2 2 4 7 7 9 10 9 8 8 8 8
10 10 10 10 10 11 10 9 9 8 8 7 7 8 8 8 9 10 10 10 10 10 10 10 10 9 9 7 6 4 2 1 1 1 6 6 9 10 9 8 7 7 7
8 8 8 9 9 8 8 9 9 8 7 7 7 7 8 9 9 10 10 11 11 11 10 9 9 9 8 7 5 3 2 2 2 2 4 6 10 10 9 8 7 7 7
7 6 6 7 7 7 7 9 8 8 7 6 6 6 6 5 6 7 10 12 12 11 10 9 8 8 8 6 5 4 2 1 1 3 4 9 9 9 9 8 7 7 7
6 6 5 6 5 5 5 6 4 5 5 4 3 4 4 3 4 7 11 12 12 11 10 9 8 7 5 4 5 5 2 2 1 3 5 11 9 8 8 8 7 7 7
6 6 6 6 4 4 4 3 2 2 4 4 4 3 3 3 4 5 5 7 7 8 5 6 6 4 4 3 3 3 3 1 1 4 6 10 9 8 8 7 7 7 7
7 7 6 6 5 4 4 3 3 3 3 3 4 3 3 2 2 3 3 4 4 3 3 3 2 3 3 3 3 3 2 1 2 4 5 9 8 8 7 7 6 6 7
7 7 7 6 5 4 3 2 3 3 3 4 3 3 3 3 3 3 2 2 2 3 3 2 2 1 1 1 1 1 1 1 2 4 4 8 8 7 7 6 6 6 6
6 7 7 7 6 4 2 2 2 3 3 3 4 4 3 3 3 3 2 2 2 2 2 2 2 2 2 1 1 1 1 1 2 3 4 5 6 7 6 6 5 5 5
7 6 6 7 6 4 2 2 2 2 3 3 4 4 4 3 3 2 2 1 1 2 3 2 2 1 2 2 2 1 1 1 2 3 3 3 3 4 5 5 4 4 4
7 6 5 6 7 5 2 1 2 2 3 3 3 3 4 3 2 2 2 2 1 1 2 2 2 2 1 2 1 1 1 2 2 2 2 3 3 3 4 5 5 4 4
7 6 5 5 5 5 4 2 2 2 2 2 3 3 3 3 3 2 2 2 1 1 1 1 2 2 2 2 2 2 2 2 2 2 2 2 2 3 3 4 4 4 4
8 7 6 5 4 4 3 2 2 2 2 2 2 3 3 2 3 2 2 2 1 1 1 1 2 1 1 1 1 2 2 2 2 2 2 2 2 3 3 3 2 3 3
8 7 6 5 4 2 2 2 2 2 2 2 3 3 3 3 3 2 1 2 2 2 2 1 1 2 1 2 2 1 1 1 2 2 2 2 2 2 2 3 2 1 1
9 8 7 5 5 4 2 1 1 2 2 2 3 3 3 2 2 2 2 1 2 2 2 1 1 1 1 2 2 2 1 1 1 1 2 2 2 2 3 4 3 2 2
10 9 8 6 5 4 3 2 2 2 1 2 3 2 2 2 2 2 2 1 1 1 1 1 1 1 1 1 1 1 1 1 1 1 1 2 2 2 2 3 4 3 3
11 10 8 7 6 4 3 2 3 3 3 3 2 2 3 2 2 2 2 1 1 1 1 1 1 1 1 1 1 1 0 1 2 1 1 2 2 2 2 2 2 3 2
10 10 9 8 6 5 4 3 2 2 2 2 2 3 2 2 1 2 2 2 1 1 1 0 1 1 0 1 1 0 0 1 1 2 2 1 1 1 1 1 1 2 2
9 10 9 8 7 6 5 4 3 2 2 2 2 2 2 2 2 2 3 2 2 1 1 1 1 1 1 0 1 1 0 0 1 2 2 2 1 1 2 1 2 2 2
Wind_Direction
82 83 86 80 77 77 80 82 82 83 84 85 86 89 99 99 102 106 108 113 115 116 118 117 115 113 114 114 114 113 112 111 111 112 112 111 113 116 118 121 118 110 115
91 91 89 84 80 79 79 81 83 83 84 84 87 92 102 104 106 108 109 115 115 115 115 117 117 117 117 118 117 117 117 118 120 118 116 114 116 117 116 114 108 112 118
94 98 94 87 84 82 81 81 83 82 83 85 88 97 105 107 109 110 112 115 115 115 116 117 117 118 117 119 119 120 122 124 128 131 134 126 121 118 112 108 111 119 118
96 96 93 93 88 86 84 84 84 84 83 84 89 99 107 109 110 111 114 118 118 118 118 119 120 121 120 120 121 123 126 132 141 148 150 128 122 122 120 119 120 123 123
98 96 99 101 95 91 88 87 87 87 87 87 90 100 109 112 113 113 116 120 120 120 120 120 122 123 124 124 125 126 129 136 147 157 115 106 104 127 126 126 125 126 128
99 101 104 106 99 95 93 91 90 89 89 91 93 99 109 116 119 118 120 121 122 123 123 124 125 127 129 129 129 132 139 155 176 140 114 111 112 128 129 130 130 131 132
103 106 110 110 106 103 100 97 96 96 94 95 96 102 112 117 124 123 123 124 126 127 129 130 130 130 131 133 134 138 150 175 202 123 106 105 117 128 129 132 135 135 137
108 111 117 117 115 111 109 107 104 101 98 98 100 106 113 122 129 132 130 129 130 133 134 133 132 133 134 135 139 147 164 218 134 125 118 116 130 134 135 137 140 141 144
108 111 120 129 126 119 116 116 114 111 108 105 106 111 117 128 137 139 138 137 136 137 138 138 136 137 135 136 142 156 175 217 282 120 127 124 137 139 143 145 147 149 152
102 109 115 125 135 134 130 130 128 125 123 121 121 124 127 133 143 147 146 144 140 139 141 140 141 143 140 140 148 169 212 265 230 134 113 128 142 145 150 152 156 160 161
98 103 113 120 130 135 135 136 144 140 140 140 139 144 146 145 145 150 147 145 145 147 147 147 151 150 149 155 168 195 232 242 202 111 108 129 141 148 152 157 162 167 168
113 110 103 104 111 122 123 130 143 142 134 142 133 142 147 141 136 134 140 147 149 152 154 159 161 161 167 173 182 194 210 209 168 117 116 136 141 149 155 159 165 169 173
112 102 98 92 76 89 100 114 113 116 122 128 110 108 113 116 124 132 139 146 154 158 164 163 171 181 179 171 162 172 199 201 146 110 128 140 139 144 155 161 168 173 177
118 110 103 100 87 66 73 88 104 105 112 107 115 99 93 96 101 109 121 139 149 151 156 156 163 165 170 169 161 172 174 157 104 108 134 140 140 146 152 161 168 174 177
121 116 109 101 90 75 59 53 79 90 103 106 100 97 89 92 95 94 97 105 129 139 142 139 140 140 132 138 152 139 117 118 115 121 131 146 149 153 157 162 169 173 178
125 119 117 116 111 106 102 90 76 98 109 107 102 102 93 91 94 103 104 110 128 128 125 137 158 153 140 123 105 114 163 143 119 128 130 142 148 155 161 163 169 174 178
128 123 125 127 120 118 113 115 116 110 106 105 108 111 111 106 106 115 116 111 111 128 138 142 153 162 162 157 151 176 157 128 111 111 126 141 148 150 157 162 165 171 181
128 125 129 129 128 128 114 84 80 90 102 111 115 117 118 119 129 127 118 116 131 139 137 151 162 161 154 152 144 153 124 124 124 131 139 147 154 158 165 174 173 177 190
133 128 121 112 125 131 132 126 115 94 88 102 105 111 125 134 134 127 116 124 162 138 126 161 128 142 156 154 154 158 146 138 137 161 151 146 148 145 152 164 172 180 194
139 134 130 128 122 135 137 128 107 103 110 111 106 114 123 126 128 129 148 145 151 118 102 85 108 133 151 157 151 120 129 151 148 150 148 132 129 132 142 142 163 175 167
144 143 142 145 139 140 133 145 147 143 135 129 131 124 119 114 121 124 111 128 131 125 122 122 132 150 163 135 110 98 101 139 136 118 125 124 126 131 117 118 138 129 161
152 151 150 154 151 155 148 141 135 119 116 119 101 98 104 109 114 131 123 119 127 122 117 132 147 161 179 155 155 156 138 127 79 138 130 134 124 116 100 100 90 88 80
159 160 162 159 158 161 158 156 142 126 109 96 107 111 104 102 97 74 89 90 89 113 143 172 176 190 212 196 176 190 178 158 138 81 109 90 84 87 100 106 101 94 96
161 160 154 154 156 152 155 163 165 149 143 133 137 135 130 120 118 120 115 115 109 94 136 188 160 210 198 228 223 231 175 135 144 128 74 82 102 99 92 100 105 108 100
159 155 155 153 154 154 163 169 163 156 150 142 139 139 132 125 136 136 129 134 133 146 136 108 109 164 220 239 261 267 105 137 137 146 148 171 131 113 128 132 117 116 114
156 153 152 149 156 160 167 167 163 162 150 133 141 145 152 153 155 154 150 144 144 155 156 149 168 190 213 324 330 339 307 153 164 155 164 180 164 157 163 149 138 129 127